DM5RC Weather Reports


time (UTC)temp
C
wind
direction
speed
KPH
gust
KPH
rain 1hr
cm
rain 24hr
cm
rain mn
cm
humidity
%
barometer
mb
20260503013320 11 194 0.0 0.0 0.00 0.00 0.00 62 1014.3
20260503012821 11 194 0.0 0.0 0.00 0.00 0.00 61 1014.3
20260503012407 11 194 0.0 0.0 0.00 0.00 0.00 60 1014.4
20260503011823 11 194 0.0 0.0 0.00 0.00 0.00 58 1014.4
20260503011324 12 194 0.0 0.0 0.00 0.00 0.00 58 1014.4
20260503010824 12 194 0.0 0.0 0.00 0.00 0.00 58 1014.4
20260503010323 12 194 0.0 0.0 0.00 0.00 0.00 57 1014.4
20260503005823 12 194 0.0 0.0 0.00 0.00 0.00 57 1014.5
20260503005324 12 194 0.0 1.6 0.00 0.00 0.00 56 1014.5
20260503004830 12 194 0.0 1.6 0.00 0.00 0.00 56 1014.5
20260503004315 12 194 0.0 1.6 0.00 0.00 0.00 56 1014.5
20260503003818 12 194 0.0 1.6 0.00 0.00 0.00 55 1014.6
20260503003405 12 197 0.0 0.0 0.00 0.00 0.00 55 1014.7
20260503002821 12 197 0.0 0.0 0.00 0.00 0.00 55 1014.7
20260503002341 12 197 0.0 1.6 0.00 0.00 0.00 55 1014.6
20260503001818 12 197 0.0 1.6 0.00 0.00 0.00 55 1014.7
20260503001340 12 197 0.0 1.6 0.00 0.00 0.00 55 1014.7
20260503000823 13 197 0.0 0.0 0.00 0.00 0.00 54 1014.7
20260503000325 13 197 0.0 0.0 0.00 0.00 0.00 54 1014.8
20260502235825 13 197 0.0 1.6 0.00 0.00 0.00 54 1014.8
20260502235328 13 197 0.0 1.6 0.00 0.00 0.00 54 1014.9
20260502234829 13 197 0.0 0.0 0.00 0.00 0.00 53 1015.0
20260502234312 13 197 0.0 0.0 0.00 0.00 0.00 53 1015.0
20260502233833 13 197 0.0 1.6 0.00 0.00 0.00 52 1015.0
20260502233312 13 197 0.0 1.6 0.00 0.00 0.00 52 1015.1
20260502232812 13 197 0.0 1.6 0.00 0.00 0.00 52 1015.1
20260502232313 13 197 0.0 1.6 0.00 0.00 0.00 52 1015.2
20260502231815 13 191 0.0 1.6 0.00 0.00 0.00 52 1015.2
20260502231317 13 191 0.0 1.6 0.00 0.00 0.00 52 1015.3
20260502230819 13 199 0.0 1.6 0.00 0.00 0.00 52 1015.3
20260502230322 13 199 0.0 3.2 0.00 0.00 0.00 52 1015.3
20260502225840 14 203 0.0 3.2 0.00 0.00 0.00 52 1015.4
20260502225322 13 206 0.0 1.6 0.00 0.00 0.00 52 1015.4
20260502224824 13 206 0.0 1.6 0.00 0.00 0.00 52 1015.4
20260502224327 14 205 0.0 1.6 0.00 0.00 0.00 52 1015.5
20260502223813 14 206 0.0 1.6 0.00 0.00 0.00 52 1015.5
20260502223314 14 206 0.0 1.6 0.00 0.00 0.00 53 1015.5
20260502222818 14 206 0.0 1.6 0.00 0.00 0.00 52 1015.6
20260502222335 14 206 0.0 0.0 0.00 0.00 0.00 52 1015.6
20260502221835 14 206 0.0 1.6 0.00 0.00 0.00 52 1015.6
20260502221315 15 206 0.0 1.6 0.00 0.00 0.00 52 1015.6
20260502220838 15 206 0.0 1.6 0.00 0.00 0.00 51 1015.6
20260502220339 15 204 0.0 1.6 0.00 0.00 0.00 51 1015.6
20260502215831 15 204 0.0 1.6 0.00 0.00 0.00 51 1015.7
20260502215313 15 205 0.0 1.6 0.00 0.00 0.00 51 1015.6
20260502214816 15 205 0.0 1.6 0.00 0.00 0.00 50 1015.7
20260502214319 16 205 0.0 3.2 0.00 0.00 0.00 50 1015.7
20260502213820 16 205 0.0 4.8 0.00 0.00 0.00 49 1015.7
20260502213323 16 205 1.6 4.8 0.00 0.00 0.00 49 1015.7
20260502212827 16 217 1.6 3.2 0.00 0.00 0.00 49 1015.8
20260502212330 16 208 1.6 3.2 0.00 0.00 0.00 49 1015.8
20260502211831 16 206 1.6 3.2 0.00 0.00 0.00 48 1015.8
20260502211314 16 219 1.6 3.2 0.00 0.00 0.00 48 1015.9
20260502210836 16 195 0.0 1.6 0.00 0.00 0.00 48 1015.9
20260502210318 16 207 0.0 3.2 0.00 0.00 0.00 47 1016.0
20260502205822 17 210 1.6 4.8 0.00 0.00 0.00 47 1016.0
20260502205327 17 207 1.6 6.4 0.00 0.00 0.00 46 1015.9
20260502204849 17 241 3.2 6.4 0.00 0.00 0.00 46 1015.9
20260502204332 17 209 1.6 6.4 0.00 0.00 0.00 46 1016.0
20260502203816 17 212 1.6 6.4 0.00 0.00 0.00 46 1016.0
20260502203319 17 200 1.6 3.2 0.00 0.00 0.00 46 1016.1
20260502202823 17 207 1.6 3.2 0.00 0.00 0.00 46 1016.1
20260502202345 17 226 1.6 3.2 0.00 0.00 0.00 45 1016.2
20260502201826 17 189 1.6 3.2 0.00 0.00 0.00 45 1016.2
20260502201324 17 191 1.6 3.2 0.00 0.00 0.00 45 1016.2
20260502200824 18 181 1.6 3.2 0.00 0.00 0.00 45 1016.3
20260502200325 18 163 0.0 1.6 0.00 0.00 0.00 44 1016.4
20260502195817 18 163 0.0 1.6 0.00 0.00 0.00 44 1016.3
20260502195316 18 163 1.6 1.6 0.00 0.00 0.00 44 1016.3
20260502194817 17 162 1.6 1.6 0.00 0.00 0.00 45 1016.4
20260502194316 17 155 0.0 3.2 0.00 0.00 0.00 47 1016.3
20260502193818 18 155 0.0 0.0 0.00 0.00 0.00 44 1016.4
20260502193317 19 156 0.0 0.0 0.00 0.00 0.00 43 1016.4
20260502192818 20 156 0.0 4.8 0.00 0.00 0.00 40 1016.3
20260502192320 20 155 0.0 4.8 0.00 0.00 0.00 39 1016.3
20260502191821 20 184 0.0 3.2 0.00 0.00 0.00 39 1016.2
20260502191322 20 215 0.0 3.2 0.00 0.00 0.00 38 1016.3
20260502190825 20 155 1.6 3.2 0.00 0.00 0.00 38 1016.3
20260502190347 20 141 0.0 1.6 0.00 0.00 0.00 38 1016.3
20260502185829 20 138 0.0 3.2 0.00 0.00 0.00 39 1016.2
20260502185313 20 136 1.6 3.2 0.00 0.00 0.00 40 1016.2
20260502184818 20 215 0.0 0.0 0.00 0.00 0.00 42 1016.3
20260502184323 21 216 0.0 0.0 0.00 0.00 0.00 40 1016.3
20260502183828 21 215 0.0 0.0 0.00 0.00 0.00 38 1016.3
20260502183313 21 216 0.0 0.0 0.00 0.00 0.00 37 1016.3
20260502182816 22 215 0.0 0.0 0.00 0.00 0.00 36 1016.2
20260502182321 22 215 0.0 0.0 0.00 0.00 0.00 35 1016.2
20260502181316 23 215 0.0 1.6 0.00 0.00 0.00 32 1016.2
20260502180818 23 215 0.0 1.6 0.00 0.00 0.00 31 1016.2
20260502180341 24 215 0.0 1.6 0.00 0.00 0.00 30 1016.2
20260502170327 26 229 3.2 9.7 0.00 0.00 0.00 27 1016.4
20260502164328 26 193 3.2 9.7 0.00 0.00 0.00 26 1016.6
20260502163830 26 262 3.2 12.9 0.00 0.00 0.00 26 1016.6
20260502163332 26 187 3.2 12.9 0.00 0.00 0.00 26 1016.7
20260502162815 26 153 6.4 14.5 0.00 0.00 0.00 25 1016.7
20260502162317 26 263 6.4 193.1 0.00 0.00 0.00 25 1016.8
20260502161819 26 191 4.8 12.9 0.00 0.00 0.00 26 1016.8
20260502161321 26 201 8.0 12.9 0.00 0.00 0.00 25 1017.0
20260502160825 26 186 8.0 14.5 0.00 0.00 0.00 25 1017.0
20260502160329 26 210 8.0 14.5 0.00 0.00 0.00 25 1017.0
20260502152321 26 215 6.4 17.7 0.00 0.00 0.00 24 1017.5
20260502151841 26 227 4.8 17.7 0.00 0.00 0.00 25 1017.6
20260502151319 26 273 4.8 17.7 0.00 0.00 0.00 25 1017.8
20260502150840 27 226 11.3 17.7 0.00 0.00 0.00 25 1017.8
20260502150321 27 216 6.4 14.5 0.00 0.00 0.00 24 1017.8
20260502130329 26 123 9.7 17.7 0.00 0.00 0.00 26 1019.4
20260502123316 26 220 8.0 16.1 0.00 0.00 0.00 27 1019.8
20260502122817 26 218 9.7 16.1 0.00 0.00 0.00 26 1019.9
20260502122320 26 138 4.8 14.5 0.00 0.00 0.00 26 1019.9
20260502121822 26 212 6.4 14.5 0.00 0.00 0.00 27 1020.1
20260502121324 26 280 6.4 12.9 0.00 0.00 0.00 28 1020.1
20260502120824 26 256 4.8 16.1 0.00 0.00 0.00 27 1020.1
20260502120329 25 255 6.4 16.1 0.00 0.00 0.00 28 1020.3
20260502115831 26 146 8.0 16.1 0.00 0.00 0.00 28 1020.3
20260502115334 26 174 9.7 16.1 0.00 0.00 0.00 28 1020.4
20260502114816 26 258 1.6 14.5 0.00 0.00 0.00 30 1020.5
20260502114339 25 224 6.4 16.1 0.00 0.00 0.00 29 1020.5
20260502113843 26 222 6.4 16.1 0.00 0.00 0.00 30 1020.7
20260502113325 26 96 4.8 12.9 0.00 0.00 0.00 29 1020.6
20260502112825 26 189 3.2 12.9 0.00 0.00 0.00 30 1020.8
20260502112325 26 243 8.0 12.9 0.00 0.00 0.00 31 1020.9
20260502111846 25 189 1.6 12.9 0.00 0.00 0.00 31 1020.9
20260502111346 26 192 8.0 12.9 0.00 0.00 0.00 31 1020.9
20260502110826 26 225 4.8 12.9 0.00 0.00 0.00 31 1021.0
20260502110326 26 144 8.0 17.7 0.00 0.00 0.00 29 1021.0
20260502105847 25 145 6.4 20.9 0.00 0.00 0.00 30 1021.0
20260502105348 25 131 11.3 24.1 0.00 0.00 0.00 30 1021.1
20260502104829 25 108 11.3 17.7 0.00 0.00 0.00 30 1021.1
20260502104348 25 41 1.6 8.0 0.00 0.00 0.00 32 1021.2
20260502103823 25 277 3.2 11.3 0.00 0.00 0.00 33 1021.3
20260502103324 25 191 6.4 16.1 0.00 0.00 0.00 32 1021.4
20260502102825 25 154 6.4 14.5 0.00 0.00 0.00 32 1021.5
20260502102327 24 222 8.0 19.3 0.00 0.00 0.00 32 1021.5
20260502101828 24 231 11.3 19.3 0.00 0.00 0.00 33 1021.6
20260502101350 25 210 11.3 19.3 0.00 0.00 0.00 32 1021.7
20260502100831 25 146 3.2 17.7 0.00 0.00 0.00 33 1021.7
20260502100331 25 73 4.8 17.7 0.00 0.00 0.00 32 1021.8
20260502091321 23 253 4.8 14.5 0.00 0.00 0.00 36 1022.4
20260502090824 23 133 4.8 14.5 0.00 0.00 0.00 35 1022.4
20260502090325 23 133 8.0 14.5 0.00 0.00 0.00 35 1022.5
20260502071328 18 203 0.0 3.2 0.00 0.00 0.00 56 1023.3
20260502070849 18 253 0.0 3.2 0.00 0.00 0.00 58 1023.3
20260502070330 17 215 0.0 3.2 0.00 0.00 0.00 58 1023.3
20260502065832 17 166 0.0 3.2 0.00 0.00 0.00 59 1023.3
20260502065315 17 167 0.0 3.2 0.00 0.00 0.00 59 1023.3
20260502064816 16 185 0.0 4.8 0.00 0.00 0.00 61 1023.3
20260502064317 16 146 1.6 3.2 0.00 0.00 0.00 61 1023.4
20260502063817 16 193 1.6 4.8 0.00 0.00 0.00 62 1023.4
20260502063318 16 221 1.6 4.8 0.00 0.00 0.00 62 1023.4
20260502062819 15 183 1.6 3.2 0.00 0.00 0.00 64 1023.4
20260502062427 15 196 0.0 3.2 0.00 0.00 0.00 66 1023.5
20260502061823 15 142 0.0 3.2 0.00 0.00 0.00 67 1023.5
20260502061324 14 188 0.0 3.2 0.00 0.00 0.00 70 1023.5
20260502060824 13 208 1.6 3.2 0.00 0.00 0.00 69 1023.5
20260502060323 13 216 1.6 3.2 0.00 0.00 0.00 70 1023.5
20260502055843 12 235 1.6 4.8 0.00 0.00 0.00 72 1023.5
20260502055343 12 208 1.6 4.8 0.00 0.00 0.00 72 1023.5
20260502054823 12 226 1.6 4.8 0.00 0.00 0.00 73 1023.5
20260502054322 12 226 1.6 3.2 0.00 0.00 0.00 74 1023.5
20260502053822 11 212 0.0 3.2 0.00 0.00 0.00 75 1023.6
20260502053322 11 241 1.6 3.2 0.00 0.00 0.00 75 1023.5
20260502052822 11 222 0.0 1.6 0.00 0.00 0.00 76 1023.6
20260502052340 11 188 0.0 1.6 0.00 0.00 0.00 77 1023.6
20260502051820 11 219 0.0 1.6 0.00 0.00 0.00 77 1023.5
20260502051320 10 243 0.0 1.6 0.00 0.00 0.00 77 1023.5
20260502050820 11 243 0.0 1.6 0.00 0.00 0.00 75 1023.5
20260502050341 11 256 0.0 0.0 0.00 0.00 0.00 77 1023.5
20260502045820 10 256 0.0 0.0 0.00 0.00 0.00 78 1023.5
20260502045321 10 256 0.0 0.0 0.00 0.00 0.00 78 1023.4
20260502044821 10 256 0.0 0.0 0.00 0.00 0.00 78 1023.5
20260502044345 10 256 0.0 0.0 0.00 0.00 0.00 80 1023.5
20260502043846 9 256 0.0 0.0 0.00 0.00 0.00 81 1023.5
20260502043327 8 256 0.0 0.0 0.00 0.00 0.00 81 1023.5
20260502042850 8 256 0.0 0.0 0.00 0.00 0.00 81 1023.4
20260502042331 8 256 0.0 0.0 0.00 0.00 0.00 83 1023.4
20260502041831 8 256 0.0 0.0 0.00 0.00 0.00 86 1023.5
20260502041331 7 256 0.0 0.0 0.00 0.00 0.00 86 1023.4
20260502040814 7 256 0.0 0.0 0.00 0.00 0.00 88 1023.4
20260502040316 6 256 0.0 1.6 0.00 0.00 0.00 88 1023.4
20260502035838 6 256 0.0 0.0 0.00 0.00 0.00 88 1023.4
20260502035319 6 256 0.0 0.0 0.00 0.00 0.00 89 1023.4
20260502034821 6 256 0.0 0.0 0.00 0.00 0.00 88 1023.3
20260502034323 5 256 0.0 0.0 0.00 0.00 0.00 88 1023.4
20260502033846 6 256 0.0 0.0 0.00 0.00 0.00 88 1023.4
20260502033327 6 256 0.0 0.0 0.00 0.00 0.00 88 1023.4
20260502032829 6 256 0.0 1.6 0.00 0.00 0.00 88 1023.5
20260502032313 6 256 0.0 1.6 0.00 0.00 0.00 88 1023.5
20260502031816 5 256 0.0 1.6 0.00 0.00 0.00 88 1023.5
20260502031318 5 256 0.0 0.0 0.00 0.00 0.00 87 1023.5
20260502030821 5 256 0.0 0.0 0.00 0.00 0.00 87 1023.6
20260502030343 5 256 0.0 0.0 0.00 0.00 0.00 87 1023.6
20260502025823 5 256 0.0 0.0 0.00 0.00 0.00 86 1023.6
20260502025324 6 256 0.0 0.0 0.00 0.00 0.00 86 1023.6
20260502024846 6 256 0.0 0.0 0.00 0.00 0.00 86 1023.5
20260502024346 6 256 0.0 0.0 0.00 0.00 0.00 86 1023.6
20260502023828 6 256 0.0 0.0 0.00 0.00 0.00 86 1023.5
20260502023330 6 256 0.0 0.0 0.00 0.00 0.00 86 1023.5
20260502022830 6 256 0.0 1.6 0.00 0.00 0.00 86 1023.6
20260502022330 6 256 0.0 1.6 0.00 0.00 0.00 86 1023.6
20260502021830 6 256 0.0 0.0 0.00 0.00 0.00 85 1023.6
20260502021328 6 256 0.0 1.6 0.00 0.00 0.00 85 1023.6
20260502020825 6 256 0.0 1.6 0.00 0.00 0.00 85 1023.6
20260502020327 7 256 0.0 0.0 0.00 0.00 0.00 85 1023.7
20260502015829 6 256 0.0 0.0 0.00 0.00 0.00 86 1023.7
20260502015313 6 256 0.0 0.0 0.00 0.00 0.00 86 1023.7
20260502014815 6 256 0.0 0.0 0.00 0.00 0.00 86 1023.7
20260502014336 6 256 0.0 0.0 0.00 0.00 0.00 86 1023.8
20260502013814 6 256 0.0 0.0 0.00 0.00 0.00 86 1023.8